Location: Berg
(48.4333°N, 13.9167°E)
Time: 04:49:35
(UTC+00:00)

Meteor 1-24 Rocket - Pass Details

Date: 18 September 2020
Orbit: 790 x 927 km, 81.2° (Epoch: 27 October)

Event Time Altitude Azimuth Distance (km) Brightness Sun altitude
Rises 19:05:28 0° 352° (N) 3,343 7.3 -19.3°
Reaches altitude 10° 19:07:57 10° 359° (N) 2,423 6.4 -19.7°
Maximum altitude 19:13:13 46° 72° (ENE) 1,116 4.0 -20.5°
Enters shadow 19:14:21 41° 106° (ESE) 1,215 4.0 -20.6°
